Wind_Speed
8 10 13 18 22 24 24 25 27 32 34 34 35 36 37 37 36 36 35 35 33 35 31 26 26 31 34 34 37 35 36 30 19 18 16 16 19 15 15 21 20 20 17 21 13 13 15 19 16 22 32 44 43 44
22 21 23 24 25 28 32 32 34 32 32 33 36 39 38 33 32 30 31 31 32 32 31 29 32 33 31 28 29 27 25 26 21 17 15 13 14 22 30 30 32 26 30 25 21 30 34 42 45 45 44 42 51 31
13 16 18 21 22 23 25 27 28 29 30 31 31 31 31 31 31 30 31 31 33 35 32 20 18 24 24 28 30 26 29 32 36 35 32 30 28 24 25 23 24 28 28 32 35 37 33 44 41 37 42 27 37 35
11 13 15 18 20 23 24 26 28 29 30 31 32 33 33 33 33 32 30 31 31 34 37 18 8 5 6 26 38 40 39 37 36 35 34 33 31 23 27 30 31 33 41 41 39 36 31 30 25 34 42 39 22 18
14 15 17 17 18 18 19 21 22 23 25 27 28 29 29 30 30 30 28 28 28 26 30 33 31 32 29 24 28 33 34 32 31 30 30 30 28 29 33 31 36 29 27 27 31 28 33 39 41 28 17 16 22 26
17 19 19 20 21 22 23 23 24 25 26 27 26 25 26 26 26 26 26 23 21 23 28 31 23 23 21 18 15 23 26 25 23 22 22 22 20 17 15 22 31 23 23 26 28 21 16 13 17 17 19 22 27 30
17 18 19 21 22 23 23 24 25 27 28 27 26 24 23 22 22 22 22 23 22 21 23 19 17 5 13 21 23 25 24 24 23 24 25 22 16 12 18 18 13 20 19 18 17 17 12 16 21 27 30 31 29 28
21 22 22 22 24 25 26 26 26 26 26 25 25 24 22 20 21 21 19 19 21 23 21 10 12 15 21 12 12 13 17 16 13 12 17 13 19 14 8 10 18 19 20 15 9 15 22 30 32 32 34 34 34 34
24 24 25 25 25 25 25 26 25 25 25 25 24 23 22 21 18 20 23 23 24 22 15 15 16 12 10 15 18 21 20 17 11 17 15 16 19 13 16 16 15 20 21 23 16 31 33 34 35 37 38 37 37 37
28 29 30 29 28 28 26 24 24 24 24 25 25 25 25 24 24 23 23 24 8 5 4 4 7 9 18 22 23 25 12 9 12 10 12 16 22 21 15 13 12 12 17 21 30 35 40 44 46 47 43 42 41 39
28 29 29 29 28 27 26 25 24 23 23 23 25 24 25 25 20 12 5 3 3 3 6 12 15 18 22 24 24 14 10 11 7 11 10 10 18 14 16 12 16 18 21 29 33 38 43 47 46 43 41 40 39 38
30 29 30 30 27 26 26 26 25 24 25 25 26 26 20 10 4 4 4 4 5 4 13 16 18 20 22 22 19 10 9 7 6 13 7 8 11 18 13 15 14 23 29 34 40 42 41 41 41 41 40 38 38 38
32 30 30 30 28 28 27 26 26 25 25 25 25 12 8 3 2 2 4 4 6 12 16 18 20 22 22 17 19 11 6 9 16 9 10 14 18 13 20 26 30 34 39 40 39 39 40 39 38 38 39 39 36 36
30 29 29 28 28 28 27 27 26 24 24 23 15 11 5 1 1 5 9 12 17 19 22 21 20 19 22 21 10 7 12 11 7 10 16 12 15 19 28 33 42 43 43 40 40 39 38 37 37 36 36 36 36 36
30 28 28 27 28 27 27 26 26 25 23 19 9 7 5 8 5 11 15 21 20 21 22 24 23 21 21 17 11 8 6 8 8 14 23 27 33 38 39 44 46 44 40 38 39 39 37 36 35 35 35 35 36 35
30 26 27 27 28 28 28 26 25 25 26 23 12 10 14 16 19 23 23 20 18 20 23 23 21 12 12 9 11 11 11 17 23 28 34 38 42 43 46 46 44 40 39 39 39 39 40 39 38 37 36 35 34 33
30 27 26 27 29 28 28 27 25 26 24 16 24 27 26 27 22 17 19 18 20 22 21 15 10 12 12 14 22 21 29 29 30 35 42 45 47 46 47 43 41 40 40 42 42 40 40 40 39 39 37 35 33 31
30 29 27 26 29 31 29 26 26 28 32 34 33 29 29 24 24 23 19 18 20 21 20 22 24 27 24 29 37 37 38 38 41 46 44 46 43 41 44 43 42 41 39 39 39 40 41 40 39 38 37 35 31 30
32 30 26 25 25 26 30 32 34 37 34 32 34 31 28 28 24 20 18 17 18 20 23 26 17 24 33 36 40 41 44 44 44 46 44 42 41 41 42 40 37 34 32 33 34 35 37 37 37 36 35 32 30 29
32 30 26 25 21 24 33 37 36 36 36 35 35 32 33 28 23 17 19 20 23 26 29 32 34 34 34 35 35 38 42 42 37 39 39 39 36 35 32 28 29 30 30 30 30 32 32 32 32 32 32 31 30 29
33 29 28 26 29 29 34 36 39 39 41 43 40 37 36 30 25 25 22 23 24 28 33 33 33 30 29 29 29 32 37 40 43 43 42 41 33 30 30 32 32 33 34 35 34 33 32 32 31 31 29 29 30 30
32 32 32 29 31 35 42 45 44 43 41 43 42 41 39 35 33 25 24 28 30 29 31 34 35 37 38 37 38 38 38 40 39 38 38 34 30 28 30 33 34 36 38 39 39 38 36 35 33 34 35 35 34 34
32 33 35 34 35 38 40 39 38 40 41 46 44 44 43 40 35 26 26 25 31 36 39 41 44 45 44 41 39 42 41 38 36 35 35 36 37 38 39 39 42 44 42 40 41 41 40 39 38 36 36 38 38 37
28 32 34 37 36 34 38 38 41 43 44 43 45 46 47 43 42 32 31 29 33 35 37 43 47 43 34 31 39 41 37 36 36 39 43 45 46 46 45 42 40 42 42 42 42 42 42 41 40 39 38 39 40 39
30 30 25 28 30 32 38 42 42 41 42 44 44 40 31 32 32 33 34 34 29 29 33 34 30 34 40 40 39 38 40 42 43 46 50 51 48 44 43 42 40 41 41 41 40 39 38 38 36 36 36 36 38 36
37 32 29 30 33 38 40 41 39 36 37 35 32 27 24 20 24 22 25 28 28 26 27 30 31 32 34 39 44 49 52 53 51 48 44 42 39 37 36 35 34 32 32 33 34 34 32 31 30 29 28 29 30 31
24 21 22 26 30 23 18 20 19 19 20 19 22 25 21 12 15 20 19 20 22 26 31 39 46 50 52 50 46 42 40 38 36 34 31 31 31 31 32 31 30 30 31 30 29 28 28 27 26 25 23 22 24 25
18 19 21 20 19 20 20 22 22 16 12 12 15 17 15 19 26 31 35 39 42 44 43 41 42 42 40 37 34 31 28 26 26 27 28 29 29 29 29 29 29 29 30 31 32 31 30 29 28 27 26 24 22 23
18 23 26 27 29 31 30 24 20 20 21 24 27 30 34 35 36 35 37 40 41 41 40 37 35 33 30 28 26 24 23 23 25 24 25 26 26 27 28 28 27 27 27 26 27 27 27 26 25 25 24 23 23 23
30 31 32 32 31 25 22 23 27 31 31 31 31 33 34 35 36 36 36 35 33 31 29 27 24 21 20 20 19 20 26 29 30 32 32 32 31 29 29 28 26 25 23 24 24 20 20 20 19 20 21 21 21 20
25 25 26 26 27 27 29 30 31 33 33 33 32 31 30 29 28 27 26 24 22 21 19 19 22 24 26 28 31 32 31 33 36 38 38 35 33 31 29 28 27 26 22 21 23 21 19 19 19 19 20 20 19 19
26 25 26 27 28 29 30 30 31 29 27 25 22 22 19 16 14 15 17 17 18 20 22 25 27 28 29 31 35 39 37 34 31 31 30 30 29 28 26 26 27 27 24 19 21 21 21 21 20 20 20 20 20 19
25 25 27 29 31 31 29 30 31 30 27 22 12 8 9 16 17 16 16 16 20 24 27 29 29 30 32 37 42 40 36 34 32 31 30 29 28 27 26 25 24 26 25 20 19 19 20 21 20 20 20 20 20 19
Wind_Direction
289 294 290 287 289 291 292 301 300 302 307 308 309 307 307 306 302 301 301 300 301 300 304 304 299 295 290 289 286 290 293 302 298 278 273 272 275 272 273 272 276 271 266 257 248 238 271 290 294 306 300 295 303 302
277 285 288 286 289 289 295 300 301 300 300 296 297 297 299 298 298 299 300 299 298 295 299 295 292 283 283 280 278 282 285 284 274 268 263 269 266 273 275 276 273 264 269 278 268 270 281 289 292 298 299 298 300 307
302 291 292 290 299 298 296 295 296 297 298 297 295 295 296 296 295 294 292 292 291 292 296 292 276 279 268 273 279 285 284 278 277 279 279 276 271 277 276 287 284 286 276 277 289 289 294 292 296 294 293 297 318 314
327 316 309 306 303 302 302 301 301 301 302 302 302 301 299 297 296 296 295 293 294 296 300 302 299 255 262 289 291 288 287 286 283 280 278 276 274 283 287 287 286 287 292 296 297 302 303 299 284 289 307 311 287 289
353 347 341 336 332 331 330 330 328 325 319 313 307 304 302 300 299 298 297 295 295 292 282 282 287 292 290 286 283 284 288 290 285 285 283 285 289 286 289 288 295 309 305 296 293 297 298 301 308 316 319 317 328 341
351 349 344 340 338 337 336 334 331 328 323 321 319 317 313 310 308 307 306 302 301 302 301 308 307 308 284 292 309 313 315 316 314 313 310 304 314 287 278 284 307 305 293 290 294 307 316 330 324 323 339 342 338 333
342 341 341 341 339 337 335 332 330 327 323 320 318 318 318 315 312 310 306 307 306 304 305 309 313 307 306 315 315 313 310 313 312 309 308 317 318 291 291 310 318 321 313 308 305 307 301 306 337 346 339 334 327 325
334 332 331 333 336 337 336 334 333 332 330 325 321 318 316 313 309 306 302 303 304 304 304 293 298 309 323 355 359 357 342 342 336 338 331 327 322 312 302 323 314 306 305 293 314 336 347 347 340 332 329 327 326 325
335 331 325 321 322 326 330 331 331 333 333 332 328 323 318 312 303 299 300 301 301 298 290 289 312 331 352 346 341 340 339 331 315 319 315 316 322 314 318 321 298 297 287 289 318 339 335 329 328 329 330 329 326 325
329 329 327 322 318 320 324 327 329 331 330 329 329 327 325 316 307 302 299 307 313 1 32 33 4 346 333 340 344 342 326 313 295 303 303 308 315 327 334 338 335 328 323 315 326 326 326 325 323 326 327 325 324 321
325 323 322 318 316 318 320 324 327 327 326 327 327 328 325 317 312 311 324 337 351 56 35 352 343 337 330 335 336 326 312 315 274 296 307 302 328 336 333 336 331 324 319 323 321 319 316 316 317 321 321 320 319 319
322 323 322 317 315 315 316 320 322 325 325 328 327 328 325 331 9 2 28 50 14 6 348 337 332 328 329 334 334 326 303 281 276 295 281 301 329 338 347 328 315 322 323 316 313 315 316 315 315 318 317 316 318 320
322 323 318 315 316 315 316 318 319 321 323 325 330 322 313 321 352 341 28 351 340 336 338 328 320 318 321 317 308 294 255 263 283 260 263 294 318 310 324 320 313 313 315 313 314 313 313 314 316 317 317 315 316 317
314 315 313 314 312 311 313 314 316 319 321 329 327 302 274 183 61 302 311 317 317 324 321 313 305 305 307 307 295 262 266 261 246 242 289 322 303 306 311 313 314 314 313 310 310 311 311 312 314 315 317 317 316 317
313 314 311 312 312 312 312 312 312 314 315 320 319 293 267 215 301 309 300 304 307 307 306 305 298 294 295 285 263 248 247 234 236 294 308 307 304 305 304 307 312 312 311 308 308 309 309 310 312 314 316 316 316 315
311 312 306 310 309 309 309 309 308 306 305 307 291 289 311 296 291 297 302 301 299 300 299 298 301 281 261 235 223 226 235 246 286 298 299 300 301 302 305 308 310 309 308 309 309 308 308 309 311 312 314 315 315 313
309 309 305 306 304 304 304 302 302 298 292 282 298 304 315 312 311 313 306 306 301 297 294 293 258 254 256 247 244 255 264 285 284 288 296 300 303 306 308 309 308 308 307 307 306 305 305 305 304 304 308 311 311 308
308 305 307 308 303 300 298 292 286 282 282 291 302 312 314 315 314 315 307 296 292 289 286 284 282 267 262 267 273 281 282 287 293 298 301 299 303 305 308 310 310 309 307 306 305 304 304 303 302 300 302 306 306 303
301 300 303 303 298 298 294 293 290 285 285 291 304 308 309 311 317 312 306 295 280 277 276 280 273 273 283 286 287 289 294 296 296 296 298 302 306 307 308 309 309 310 312 311 310 309 307 305 304 302 302 303 303 303
293 296 300 296 286 278 278 280 283 279 281 297 301 304 305 312 315 306 306 298 289 277 272 271 290 299 299 297 294 292 293 298 304 307 308 307 307 309 305 304 309 313 316 319 323 324 322 316 310 307 305 303 301 303
287 296 293 292 289 284 281 275 272 279 288 293 301 303 305 311 310 303 298 298 292 286 286 288 294 294 293 294 295 295 296 297 299 300 304 304 298 298 302 308 311 314 316 314 313 312 312 315 316 313 308 305 303 307
289 290 291 290 283 278 278 277 279 284 284 290 295 300 303 300 307 304 302 298 298 298 293 290 287 290 293 293 293 293 295 297 298 299 302 297 296 301 305 308 310 313 314 312 310 308 306 305 304 304 304 304 304 307
283 284 285 281 278 274 272 279 277 279 275 286 293 291 290 293 296 297 293 297 301 297 290 286 281 281 288 283 291 292 294 296 298 299 296 296 303 306 306 307 309 310 309 304 302 302 301 300 300 300 301 301 301 302
283 278 274 272 269 265 268 267 272 277 280 284 287 287 287 285 288 283 282 295 302 297 296 290 281 276 277 290 292 288 285 288 293 297 297 298 301 305 306 305 303 301 299 296 295 295 295 297 298 299 300 300 300 301
278 268 267 260 262 259 261 266 271 273 278 285 283 279 268 278 274 275 283 287 290 287 283 281 278 284 289 288 286 288 294 299 301 302 304 305 306 305 305 305 302 299 297 296 295 295 295 296 298 298 299 299 298 298
266 263 247 252 258 262 266 267 269 271 271 267 263 265 263 276 286 283 282 282 283 279 279 284 287 287 291 294 298 301 303 303 303 303 303 303 304 305 304 305 305 302 301 301 301 301 302 303 304 303 302 300 298 298
242 246 256 255 253 253 258 263 272 280 282 292 287 295 296 286 281 279 286 292 289 288 289 293 296 298 299 301 302 303 303 304 304 306 308 309 310 309 308 309 309 308 309 312 315 317 316 318 319 319 318 316 311 310
258 265 272 277 293 296 304 304 310 306 298 287 285 286 282 281 285 286 287 288 290 294 297 298 299 300 301 301 302 303 305 307 310 313 313 314 315 315 315 314 313 313 313 313 313 315 314 314 314 314 315 316 315 313
302 303 304 306 309 314 315 316 306 297 292 286 287 288 288 289 290 292 294 296 298 298 299 302 304 306 307 309 310 311 312 314 314 316 319 319 320 319 318 316 313 311 309 307 309 310 311 312 313 313 315 317 321 323
311 312 313 312 314 316 306 297 293 295 296 296 296 297 298 298 297 297 297 297 299 302 304 305 306 306 305 304 304 312 317 317 317 318 319 318 314 309 307 307 308 308 310 308 308 309 310 311 314 315 315 314 314 315
317 314 311 310 307 306 302 302 300 300 301 301 300 298 296 296 295 297 302 305 306 308 310 309 310 313 314 313 311 310 309 310 310 311 310 309 307 305 305 301 302 307 313 310 308 313 316 317 319 319 318 318 318 319
327 322 317 315 314 313 313 314 313 313 313 312 311 304 301 307 317 323 320 316 313 313 314 313 312 312 313 315 320 322 320 319 318 317 316 314 311 308 305 299 298 298 304 308 308 311 315 317 317 317 318 318 319 319
326 325 324 325 325 326 327 324 324 323 324 327 328 328 329 328 328 328 323 332 328 322 317 312 313 315 317 319 322 323 321 322 322 322 323 323 322 317 310 306 301 296 297 304 305 310 314 312 313 313 314 316 316 316
Height
3121 3122 3122 3121 3120 3119 3118 3117 3115 3114 3112 3110 3108 3107 3106 3104 3102 3100 3098 3095 3092 3088 3091 3088 3086 3084 3080 3079 3074 3071 3069 3067 3066 3064 3061 3059 3053 3053 3050 3048 3048 3047 3046 3038 3038 3037 3027 3024 3023 3024 3018 3011 3007 3004
3119 3118 3118 3117 3116 3114 3113 3111 3109 3107 3105 3103 3101 3099 3097 3095 3093 3091 3088 3086 3083 3080 3082 3079 3076 3072 3069 3068 3066 3064 3064 3061 3060 3057 3055 3050 3047 3042 3041 3039 3039 3036 3036 3035 3034 3025 3025 3022 3017 3014 3008 3003 2999 2994
3114 3114 3113 3112 3110 3109 3107 3105 3103 3101 3098 3096 3094 3091 3089 3086 3084 3083 3080 3077 3073 3070 3071 3068 3064 3062 3061 3060 3058 3055 3055 3053 3049 3048 3046 3044 3040 3036 3035 3032 3032 3031 3030 3025 3024 3018 3017 3014 3008 3002 2999 2993 2988 2985
3112 3110 3109 3108 3106 3104 3101 3099 3097 3095 3091 3088 3085 3082 3080 3077 3075 3073 3071 3067 3066 3062 3059 3056 3053 3054 3054 3054 3051 3045 3043 3042 3040 3039 3037 3035 3035 3032 3028 3027 3024 3025 3020 3015 3009 3007 3004 3001 2997 2991 2988 2985 2982 2979
3110 3109 3107 3104 3101 3098 3096 3093 3090 3087 3084 3081 3078 3075 3072 3069 3066 3064 3061 3058 3057 3058 3051 3050 3051 3050 3046 3043 3040 3038 3034 3032 3030 3029 3028 3028 3026 3025 3020 3018 3013 3013 3010 3007 3002 3000 2997 2993 2989 2985 2982 2979 2976 2973
3108 3106 3103 3100 3097 3095 3093 3090 3087 3083 3079 3075 3072 3069 3065 3063 3059 3055 3053 3052 3049 3047 3043 3039 3042 3041 3037 3035 3033 3031 3029 3027 3025 3022 3021 3019 3019 3018 3014 3010 3009 3007 3002 3000 2999 2995 2990 2987 2984 2981 2978 2976 2973 2970
3107 3105 3101 3098 3095 3092 3090 3087 3083 3079 3075 3071 3067 3064 3060 3057 3054 3052 3049 3047 3044 3042 3039 3033 3032 3034 3034 3032 3031 3027 3024 3021 3019 3016 3014 3013 3012 3012 3007 3004 3004 3001 2998 2995 2993 2991 2989 2985 2981 2978 2975 2972 2968 2965
3106 3102 3098 3094 3091 3088 3085 3082 3078 3073 3069 3065 3061 3058 3055 3052 3049 3048 3045 3042 3039 3037 3035 3033 3030 3030 3028 3026 3024 3024 3022 3019 3016 3013 3011 3009 3008 3007 3003 3001 2999 2996 2994 2991 2990 2987 2985 2982 2979 2975 2970 2965 2962 2957
3101 3098 3094 3091 3087 3084 3081 3077 3073 3069 3065 3061 3057 3053 3051 3047 3042 3041 3039 3037 3035 3037 3032 3030 3029 3028 3026 3025 3022 3019 3016 3014 3014 3011 3007 3005 3004 3003 3000 2997 2994 2991 2990 2987 2986 2984 2981 2977 2973 2968 2963 2957 2952 2946
3096 3093 3090 3086 3083 3080 3076 3072 3068 3064 3060 3056 3053 3049 3043 3041 3038 3037 3032 3031 3028 3028 3028 3029 3028 3027 3027 3021 3018 3017 3012 3011 3008 3007 3002 3000 2998 2997 2995 2993 2991 2989 2987 2984 2981 2978 2972 2968 2963 2959 2954 2947 2942 2936
3092 3088 3084 3081 3078 3075 3072 3067 3063 3060 3057 3053 3048 3044 3040 3035 3031 3030 3028 3029 3029 3028 3028 3029 3029 3025 3022 3019 3015 3013 3010 3008 3004 3002 3000 2996 2994 2992 2991 2989 2987 2986 2983 2980 2975 2971 2966 2960 2955 2951 2947 2941 2935 2929
3086 3082 3079 3076 3073 3070 3068 3063 3059 3056 3051 3048 3045 3039 3034 3031 3029 3033 3030 3029 3030 3031 3028 3026 3026 3022 3019 3016 3013 3011 3009 3006 3002 2999 2997 2994 2992 2989 2988 2986 2984 2981 2977 2973 2968 2963 2959 2953 2947 2942 2937 2933 2928 2922
3081 3078 3073 3070 3068 3066 3062 3058 3055 3051 3048 3043 3039 3035 3033 3030 3030 3031 3030 3030 3029 3029 3026 3023 3022 3019 3015 3014 3011 3008 3004 3002 2999 2995 2992 2990 2989 2985 2983 2981 2978 2975 2970 2964 2960 2955 2951 2945 2940 2935 2930 2924 2919 2915
3077 3074 3068 3065 3063 3061 3057 3053 3050 3046 3043 3039 3036 3034 3030 3028 3029 3030 3028 3028 3026 3023 3020 3018 3017 3015 3012 3010 3007 3003 3001 2998 2993 2989 2986 2986 2983 2980 2977 2973 2968 2964 2960 2955 2950 2946 2942 2937 2932 2927 2922 2916 2912 2907
3070 3066 3061 3058 3056 3054 3051 3047 3044 3041 3039 3037 3035 3031 3028 3028 3027 3026 3025 3023 3021 3018 3014 3011 3009 3009 3006 3004 3001 2998 2995 2989 2984 2982 2981 2978 2976 2972 2968 2964 2960 2954 2949 2945 2941 2936 2932 2928 2923 2918 2913 2908 2903 2898
3062 3060 3055 3052 3050 3047 3044 3041 3038 3035 3032 3032 3028 3027 3027 3025 3024 3021 3018 3015 3014 3010 3007 3005 3002 3000 2997 2995 2991 2988 2985 2979 2978 2975 2972 2968 2965 2962 2958 2953 2948 2944 2939 2935 2931 2927 2922 2918 2913 2909 2904 2899 2894 2890
3054 3053 3049 3046 3044 3041 3038 3035 3032 3029 3025 3022 3021 3021 3019 3016 3014 3012 3010 3008 3005 3002 3000 2999 2997 2994 2990 2985 2980 2978 2974 2975 2971 2968 2965 2960 2954 2950 2946 2941 2937 2933 2929 2925 2921 2916 2912 2908 2904 2899 2895 2891 2886 2882
3047 3044 3041 3040 3036 3032 3030 3028 3025 3021 3014 3014 3013 3013 3011 3009 3006 3004 3002 3000 2997 2994 2992 2991 2989 2984 2981 2974 2971 2971 2968 2965 2962 2957 2953 2948 2944 2939 2935 2930 2926 2922 2918 2913 2909 2905 2900 2896 2892 2888 2884 2881 2878 2874
3039 3037 3035 3033 3029 3025 3021 3018 3015 3009 3006 3006 3005 3004 3003 3001 2998 2995 2993 2991 2989 2987 2984 2981 2978 2972 2969 2966 2963 2961 2957 2952 2949 2947 2943 2937 2932 2928 2924 2920 2915 2911 2906 2902 2898 2894 2890 2886 2882 2878 2874 2871 2868 2864
3030 3028 3027 3025 3022 3020 3015 3009 3006 3001 2996 2998 2996 2995 2994 2992 2990 2987 2986 2983 2981 2977 2974 2970 2968 2964 2960 2956 2953 2950 2946 2942 2938 2936 2932 2927 2923 2919 2915 2912 2908 2904 2900 2895 2890 2885 2881 2877 2873 2869 2865 2862 2859 2856
3020 3021 3017 3017 3013 3011 3005 2999 2995 2992 2989 2986 2986 2985 2983 2981 2981 2979 2977 2974 2971 2969 2964 2962 2958 2954 2950 2946 2942 2939 2936 2932 2928 2924 2920 2917 2913 2909 2906 2902 2898 2894 2891 2887 2883 2878 2873 2869 2865 2861 2858 2855 2851 2848
3011 3010 3006 3004 3002 2998 2991 2986 2985 2983 2981 2977 2975 2974 2972 2970 2969 2968 2965 2964 2961 2958 2955 2951 2947 2944 2940 2936 2932 2929 2925 2921 2917 2913 2910 2906 2903 2899 2896 2893 2889 2885 2881 2877 2873 2869 2864 2859 2855 2852 2849 2846 2843 2839
3002 3000 2996 2994 2990 2984 2978 2976 2975 2972 2970 2966 2964 2962 2959 2958 2958 2957 2953 2951 2949 2946 2943 2940 2936 2932 2929 2925 2922 2918 2914 2910 2906 2903 2900 2897 2894 2890 2886 2880 2877 2873 2869 2866 2862 2857 2853 2849 2845 2840 2837 2835 2831 2829
2992 2988 2984 2980 2975 2970 2966 2965 2962 2961 2958 2956 2953 2950 2948 2947 2945 2943 2940 2939 2937 2933 2930 2927 2923 2918 2915 2912 2910 2907 2903 2900 2896 2893 2889 2886 2882 2878 2874 2868 2863 2859 2855 2852 2848 2844 2840 2836 2833 2829 2825 2822 2819 2816
2982 2977 2972 2965 2963 2960 2955 2952 2950 2949 2946 2945 2943 2940 2935 2935 2932 2929 2927 2926 2924 2921 2918 2915 2912 2909 2906 2903 2899 2896 2892 2889 2885 2881 2876 2873 2868 2864 2859 2854 2849 2845 2842 2838 2835 2832 2828 2824 2821 2818 2814 2810 2807 2805
2966 2963 2958 2953 2951 2950 2946 2942 2940 2937 2934 2932 2930 2928 2926 2924 2924 2921 2918 2915 2912 2910 2908 2905 2903 2900 2896 2892 2888 2884 2880 2876 2872 2868 2863 2858 2854 2850 2846 2843 2840 2836 2831 2827 2823 2820 2817 2814 2810 2807 2804 2801 2797 2794
2954 2951 2948 2945 2942 2939 2936 2934 2931 2929 2927 2925 2922 2921 2920 2916 2914 2912 2909 2907 2904 2901 2899 2896 2892 2888 2884 2880 2876 2871 2867 2863 2859 2856 2852 2848 2844 2840 2837 2833 2830 2826 2821 2818 2815 2811 2807 2804 2801 2799 2796 2793 2789 2786
2945 2941 2941 2939 2936 2934 2931 2929 2926 2923 2921 2919 2917 2915 2914 2911 2908 2905 2902 2898 2894 2890 2887 2883 2879 2876 2872 2868 2865 2861 2858 2854 2851 2847 2843 2839 2835 2832 2828 2825 2821 2817 2813 2809 2806 2803 2800 2797 2794 2791 2789 2786 2784 2780
2941 2938 2936 2933 2930 2926 2924 2923 2920 2918 2915 2912 2909 2906 2904 2901 2897 2893 2889 2885 2882 2878 2874 2871 2867 2864 2861 2858 2855 2853 2851 2847 2844 2841 2838 2834 2830 2826 2822 2818 2815 2811 2808 2805 2801 2797 2794 2791 2788 2785 2782 2780 2777 2774
2936 2932 2929 2926 2923 2920 2918 2916 2912 2909 2905 2902 2898 2895 2892 2888 2885 2881 2878 2874 2871 2868 2866 2863 2860 2858 2856 2854 2852 2849 2843 2839 2835 2832 2829 2826 2822 2819 2815 2812 2809 2805 2802 2798 2795 2793 2790 2787 2784 2781 2778 2776 2773 2771
2930 2927 2923 2919 2916 2913 2909 2905 2902 2898 2895 2892 2888 2885 2881 2877 2874 2872 2869 2866 2864 2862 2860 2858 2855 2853 2850 2847 2843 2839 2838 2834 2828 2823 2818 2815 2812 2808 2805 2802 2799 2797 2794 2792 2788 2786 2784 2781 2779 2776 2774 2771 2768 2765
2923 2919 2915 2911 2908 2904 2900 2896 2892 2889 2885 2882 2878 2875 2872 2870 2868 2866 2864 2862 2860 2858 2856 2854 2851 2847 2844 2839 2835 2830 2825 2821 2817 2813 2809 2805 2801 2798 2795 2792 2790 2788 2786 2785 2782 2780 2777 2775 2774 2771 2769 2766 2763 2761
2917 2913 2909 2904 2899 2895 2892 2888 2883 2879 2876 2873 2871 2870 2868 2867 2865 2863 2861 2859 2857 2854 2851 2847 2844 2840 2836 2832 2827 2821 2817 2813 2809 2805 2801 2798 2794 2790 2786 2784 2782 2779 2778 2778 2776 2774 2772 2770 2768 2766 2763 2761 2758 2756